View from above orbital plane
|
View from above satellite
|
Ground track
|
The orbit data is extracted from the following two-line orbital elements,
1 42851U 17042AC 22136.71422018 .10248545 21554-5 13547-2 0 9996
2 42851 96.7871 341.5245 0011472 262.4277 97.5718 16.35426405272306
Epoch (UTC): | 16 May 2022 17:08:28 |
Eccentricity: | 0.0011472 |
inclination: | 96.7871° |
perigee height: | 170 km |
apogee height: | 185 km |
right ascension of ascending node: | 341.5245° |
argument of perigee: | 262.4277° |
revolutions per day: | 16.35426405 |
mean anomaly at epoch: | 97.5718° |
orbit number at epoch: | 27230 |
The dashed part of the orbit path shows where the satellite is in the earth's shadow,
|
|